GW3643 Weather Reports


Display with metric or nautical units.
time (UTC)temp
F
wind
direction
speed
MPH
gust
MPH
rain 1hr
in
rain 24hr
in
rain mn
in
humidity
%
barometer
mb
20260906145042 96 295 6.0 14.0 0.00 0.00 0.00 20 1021.6
20260906144554 96 285 2.0 13.0 0.00 0.00 0.00 20 1021.6
20260906144043 95 214 6.0 13.0 0.00 0.00 0.00 21 1021.7
20260906143544 95 206 2.0 10.0 0.00 0.00 0.00 20 1021.8
20260906143059 94 159 4.0 12.0 0.00 0.00 0.00 21 1021.8
20260906142545 94 178 5.0 16.0 0.00 0.00 0.00 21 1021.8
20260906142043 94 164 5.0 16.0 0.00 0.00 0.00 21 1021.9
20260906141555 94 222 8.0 15.0 0.00 0.00 0.00 21 1022.0
20260906141045 94 157 5.0 14.0 0.00 0.00 0.00 21 1022.0
20260906140548 95 177 4.0 11.0 0.00 0.00 0.00 20 1022.1
20260906140108 95 225 1.0 11.0 0.00 0.00 0.00 21 1022.1
20260906135546 95 228 5.0 11.0 0.00 0.00 0.00 20 1022.2
20260906135049 95 140 2.0 10.0 0.00 0.00 0.00 21 1022.3
20260906134559 94 202 4.0 11.0 0.00 0.00 0.00 21 1022.4
20260906134046 93 188 6.0 12.0 0.00 0.00 0.00 21 1022.5
20260906133545 95 240 5.0 12.0 0.00 0.00 0.00 21 1022.5
20260906133120 95 226 3.0 12.0 0.00 0.00 0.00 21 1022.5
20260906132546 95 164 1.0 9.0 0.00 0.00 0.00 21 1022.5
20260906132046 95 257 1.0 11.0 0.00 0.00 0.00 21 1022.6
20260906131615 94 211 3.0 11.0 0.00 0.00 0.00 22 1022.6
20260906131046 93 190 3.0 9.0 0.00 0.00 0.00 22 1022.7
20260906130546 93 176 3.0 8.0 0.00 0.00 0.00 22 1022.8
20260906130113 94 232 3.0 10.0 0.00 0.00 0.00 21 1022.8
20260906125550 94 143 0.0 10.0 0.00 0.00 0.00 22 1022.8
20260906125049 94 230 2.0 8.0 0.00 0.00 0.00 22 1022.8
20260906124603 93 0 2.0 9.0 0.00 0.00 0.00 22 1022.8
20260906124044 93 214 2.0 9.0 0.00 0.00 0.00 22 1022.8
20260906123545 92 229 1.0 8.0 0.00 0.00 0.00 23 1022.9
20260906123056 93 151 2.0 7.0 0.00 0.00 0.00 22 1022.9
20260906122543 93 332 1.0 8.0 0.00 0.00 0.00 22 1023.0
20260906122045 90 8 2.0 9.0 0.00 0.00 0.00 24 1023.0
20260906121601 91 0 4.0 10.0 0.00 0.00 0.00 24 1023.1
20260906121045 91 193 4.0 10.0 0.00 0.00 0.00 24 1023.1
20260906120546 92 201 1.0 5.0 0.00 0.00 0.00 23 1023.2
20260906120104 92 74 1.0 7.0 0.00 0.00 0.00 24 1023.1
20260906115544 91 193 1.0 7.0 0.00 0.00 0.00 24 1023.3
20260906115042 89 227 2.0 6.0 0.00 0.00 0.00 25 1023.3
20260906114556 89 133 1.0 9.0 0.00 0.00 0.00 26 1023.2
20260906114043 89 0 1.0 9.0 0.00 0.00 0.00 25 1023.4
20260906113546 90 205 3.0 8.0 0.00 0.00 0.00 24 1023.5
20260906113102 90 0 2.0 8.0 0.00 0.00 0.00 24 1023.4
20260906112546 89 204 1.0 8.0 0.00 0.00 0.00 25 1023.5
20260906112045 89 182 0.0 7.0 0.00 0.00 0.00 26 1023.6
20260906111600 88 72 3.0 7.0 0.00 0.00 0.00 26 1023.6
20260906111046 88 178 1.0 4.0 0.00 0.00 0.00 26 1023.6
20260906110547 89 0 0.0 6.0 0.00 0.00 0.00 25 1023.7
20260906110056 86 0 2.0 6.0 0.00 0.00 0.00 28 1023.7
20260906105546 86 190 3.0 6.0 0.00 0.00 0.00 27 1023.7
20260906105044 87 169 2.0 5.0 0.00 0.00 0.00 27 1023.8
20260906104557 87 15 2.0 4.0 0.00 0.00 0.00 27 1023.8
20260906104043 86 0 1.0 4.0 0.00 0.00 0.00 28 1023.8
20260906103547 86 152 2.0 4.0 0.00 0.00 0.00 28 1023.9
20260906103054 85 139 1.0 6.0 0.00 0.00 0.00 29 1023.9
20260906102546 85 0 0.0 6.0 0.00 0.00 0.00 28 1024.0
20260906102046 85 120 1.0 6.0 0.00 0.00 0.00 29 1023.9
20260906101558 85 199 2.0 6.0 0.00 0.00 0.00 29 1024.0
20260906101046 85 183 2.0 6.0 0.00 0.00 0.00 28 1024.0
20260906100547 85 179 1.0 5.0 0.00 0.00 0.00 28 1024.0
20260906100100 85 170 1.0 5.0 0.00 0.00 0.00 28 1023.9
20260906095549 86 68 1.0 5.0 0.00 0.00 0.00 28 1023.9
20260906095045 84 73 2.0 5.0 0.00 0.00 0.00 29 1023.9
20260906094602 84 75 1.0 6.0 0.00 0.00 0.00 30 1023.9
20260906094046 84 54 2.0 6.0 0.00 0.00 0.00 30 1024.0
20260906093547 84 192 1.0 5.0 0.00 0.00 0.00 29 1024.0
20260906093059 84 46 1.0 5.0 0.00 0.00 0.00 29 1023.9
20260906092546 83 170 1.0 5.0 0.00 0.00 0.00 30 1024.0
20260906092046 83 0 2.0 6.0 0.00 0.00 0.00 30 1024.0
20260906091604 83 0 2.0 6.0 0.00 0.00 0.00 30 1023.9
20260906091048 83 355 1.0 3.0 0.00 0.00 0.00 30 1023.9
20260906090545 83 12 1.0 4.0 0.00 0.00 0.00 30 1024.0
20260906090110 82 75 1.0 4.0 0.00 0.00 0.00 31 1024.0
20260906085545 82 116 0.0 3.0 0.00 0.00 0.00 30 1023.9
20260906085042 82 0 0.0 6.0 0.00 0.00 0.00 32 1023.9
20260906084605 82 0 0.0 6.0 0.00 0.00 0.00 31 1023.8
20260906084044 81 91 2.0 6.0 0.00 0.00 0.00 32 1023.8
20260906083543 82 186 1.0 4.0 0.00 0.00 0.00 32 1023.9
20260906083101 82 357 2.0 4.0 0.00 0.00 0.00 31 1023.9
20260906082545 81 0 0.0 3.0 0.00 0.00 0.00 32 1023.9
20260906082122 81 0 0.0 3.0 0.00 0.00 0.00 33 1023.9
20260906081554 81 62 0.0 3.0 0.00 0.00 0.00 33 1023.9
20260906081046 80 358 0.0 5.0 0.00 0.00 0.00 34 1023.8
20260906080546 79 358 1.0 5.0 0.00 0.00 0.00 35 1023.9
20260906075543 79 49 0.0 5.0 0.00 0.00 0.00 35 1023.9
20260906075047 78 0 0.0 5.0 0.00 0.00 0.00 35 1023.9
20260906074600 78 0 0.0 5.0 0.00 0.00 0.00 35 1023.9
20260906074043 78 11 0.0 3.0 0.00 0.00 0.00 35 1023.8
20260906073545 79 0 0.0 3.0 0.00 0.00 0.00 35 1023.9
20260906073104 79 0 0.0 3.0 0.00 0.00 0.00 35 1023.8
20260906072545 79 0 0.0 2.0 0.00 0.00 0.00 35 1023.8
20260906072046 79 0 0.0 2.0 0.00 0.00 0.00 35 1023.8
20260906071555 79 3 0.0 1.0 0.00 0.00 0.00 34 1023.7
20260906071045 79 0 0.0 3.0 0.00 0.00 0.00 35 1023.6
20260906070546 78 0 0.0 3.0 0.00 0.00 0.00 36 1023.7
20260906070058 78 19 1.0 3.0 0.00 0.00 0.00 35 1023.6
20260906065544 78 7 1.0 3.0 0.00 0.00 0.00 35 1023.5
20260906065045 78 12 1.0 5.0 0.00 0.00 0.00 36 1023.6
20260906064554 78 26 2.0 5.0 0.00 0.00 0.00 36 1023.5
20260906064046 78 1 0.0 4.0 0.00 0.00 0.00 36 1023.5
20260906063543 77 0 0.0 4.0 0.00 0.00 0.00 36 1023.5
20260906063104 77 0 1.0 4.0 0.00 0.00 0.00 36 1023.6
20260906062547 77 33 0.0 2.0 0.00 0.00 0.00 36 1023.5
20260906062045 77 0 0.0 2.0 0.00 0.00 0.00 36 1023.4
20260906061607 77 0 0.0 2.0 0.00 0.00 0.00 36 1023.4
20260906061049 77 0 0.0 2.0 0.00 0.00 0.00 36 1023.4
20260906060546 77 0 0.0 2.0 0.00 0.00 0.00 36 1023.3
20260906060107 77 0 0.0 2.0 0.00 0.00 0.00 36 1023.2
20260906055550 77 0 0.0 1.0 0.00 0.00 0.00 36 1023.1
20260906055046 77 0 0.0 3.0 0.00 0.00 0.00 36 1023.1
20260906054602 77 0 0.0 3.0 0.00 0.00 0.00 37 1023.1
20260906054046 77 8 0.0 4.0 0.00 0.00 0.00 36 1023.0
20260906053543 77 0 1.0 4.0 0.00 0.00 0.00 36 1023.0
20260906053103 77 0 1.0 4.0 0.00 0.00 0.00 36 1022.9
20260906052548 78 15 1.0 4.0 0.00 0.00 0.00 36 1022.8
20260906052044 78 0 0.0 2.0 0.00 0.00 0.00 36 1022.9
20260906051558 78 0 0.0 4.0 0.00 0.00 0.00 35 1022.8
20260906051042 78 35 0.0 4.0 0.00 0.00 0.00 35 1022.9
20260906050542 78 41 0.0 3.0 0.00 0.00 0.00 35 1022.9
20260906050055 78 40 0.0 3.0 0.00 0.00 0.00 35 1022.8
20260906045542 78 0 0.0 3.0 0.00 0.00 0.00 36 1022.9
20260906045042 78 83 0.0 3.0 0.00 0.00 0.00 36 1022.9
20260906044600 78 0 0.0 4.0 0.00 0.00 0.00 36 1022.9
20260906044043 78 7 0.0 4.0 0.00 0.00 0.00 36 1022.9
20260906043544 78 0 0.0 3.0 0.00 0.00 0.00 36 1023.0
20260906043055 78 0 0.0 3.0 0.00 0.00 0.00 36 1022.9
20260906042544 78 30 1.0 3.0 0.00 0.00 0.00 36 1022.9
20260906042043 78 0 0.0 4.0 0.00 0.00 0.00 36 1023.0
20260906041553 78 0 0.0 4.0 0.00 0.00 0.00 36 1023.0
20260906041045 78 0 1.0 5.0 0.00 0.00 0.00 36 1022.8
20260906040542 78 0 1.0 5.0 0.00 0.00 0.00 36 1022.8
20260906040053 78 10 2.0 4.0 0.00 0.00 0.00 36 1022.8
20260906035543 78 25 1.0 4.0 0.00 0.00 0.00 36 1022.9
20260906035043 78 356 0.0 6.0 0.00 0.00 0.00 36 1022.9
20260906034558 78 0 0.0 8.0 0.00 0.00 0.00 36 1022.9
20260906034043 79 358 3.0 8.0 0.00 0.00 0.00 35 1022.7
20260906033548 80 0 1.0 7.0 0.00 0.00 0.00 34 1023.3
20260906033101 79 236 1.0 7.0 0.00 0.00 0.00 34 1022.8
20260906032542 79 69 2.0 7.0 0.00 0.00 0.00 34 1022.4
20260906032043 79 0 0.0 3.0 0.00 0.00 0.00 35 1022.6
20260906031558 79 0 0.0 3.0 0.00 0.00 0.00 36 1023.1
20260906031043 79 0 0.0 3.0 0.00 0.00 0.00 35 1023.2
20260906030543 79 341 0.0 3.0 0.00 0.00 0.00 35 1023.2
20260906030056 80 355 0.0 2.0 0.00 0.00 0.00 34 1023.2
20260906025541 80 0 0.0 1.0 0.00 0.00 0.00 33 1023.2
20260906025044 80 0 0.0 1.0 0.00 0.00 0.00 33 1023.1
20260906024555 80 0 0.0 2.0 0.00 0.00 0.00 33 1023.0
20260906024042 80 126 0.0 3.0 0.00 0.00 0.00 33 1022.9
20260906023543 80 0 0.0 3.0 0.00 0.00 0.00 33 1022.8
20260906023052 80 0 0.0 3.0 0.00 0.00 0.00 33 1022.8
20260906022544 80 0 0.0 1.0 0.00 0.00 0.00 33 1022.9
20260906022043 80 117 0.0 2.0 0.00 0.00 0.00 33 1022.9
20260906021600 80 0 0.0 4.0 0.00 0.00 0.00 33 1022.9
20260906021046 80 0 0.0 4.0 0.00 0.00 0.00 33 1022.9
20260906020545 80 13 1.0 4.0 0.00 0.00 0.00 33 1022.8
20260906020056 80 0 0.0 5.0 0.00 0.00 0.00 33 1022.9
20260906015546 80 0 1.0 5.0 0.00 0.00 0.00 33 1022.8
20260906015044 80 8 1.0 5.0 0.00 0.00 0.00 33 1022.8
20260906014603 80 0 0.0 4.0 0.00 0.00 0.00 33 1022.8
20260906014047 80 101 1.0 4.0 0.00 0.00 0.00 33 1022.9
20260906013546 80 144 1.0 4.0 0.00 0.00 0.00 33 1022.8
20260906013058 80 162 0.0 5.0 0.00 0.00 0.00 33 1022.8
20260906012542 80 0 1.0 6.0 0.00 0.00 0.00 33 1022.9
20260906012044 80 149 1.0 6.0 0.00 0.00 0.00 33 1022.9
20260906011607 80 78 0.0 4.0 0.00 0.00 0.00 33 1023.0
20260906011046 80 59 0.0 5.0 0.00 0.00 0.00 33 1023.1
20260906010545 80 134 2.0 5.0 0.00 0.00 0.00 33 1023.1
20260906010057 81 183 1.0 7.0 0.00 0.00 0.00 33 1023.2
20260906005546 81 98 2.0 7.0 0.00 0.00 0.00 32 1023.0
20260906005046 81 175 1.0 5.0 0.00 0.00 0.00 33 1023.0
20260906004601 81 207 0.0 7.0 0.00 0.00 0.00 32 1023.0
20260906004046 81 189 1.0 7.0 0.00 0.00 0.00 32 1022.9
20260906003544 81 24 1.0 5.0 0.00 0.00 0.00 32 1022.9
20260906003058 81 0 0.0 6.0 0.00 0.00 0.00 32 1023.0
20260906002543 81 0 1.0 6.0 0.00 0.00 0.00 32 1022.9
20260906002046 81 0 1.0 6.0 0.00 0.00 0.00 32 1023.0
20260906001601 81 193 0.0 6.0 0.00 0.00 0.00 32 1022.9
20260906001048 81 69 2.0 5.0 0.00 0.00 0.00 32 1023.0
20260906000546 81 155 1.0 7.0 0.00 0.00 0.00 32 1022.9
20260906000100 82 117 2.0 7.0 0.00 0.00 0.00 32 1022.9
20260905235545 82 155 1.0 6.0 0.00 0.00 0.00 31 1023.0
20260905235045 82 161 1.0 8.0 0.00 0.00 0.00 31 1022.9
20260905234606 82 122 2.0 8.0 0.00 0.00 0.00 31 1022.9
20260905234045 82 180 3.0 8.0 0.00 0.00 0.00 31 1022.8
20260905233544 83 0 2.0 8.0 0.00 0.00 0.00 30 1022.9
20260905233123 83 136 3.0 8.0 0.00 0.00 0.00 30 1022.9
20260905232545 83 166 2.0 9.0 0.00 0.00 0.00 30 1022.7
20260905232045 83 128 2.0 9.0 0.00 0.00 0.00 30 1022.7
20260905231557 83 100 2.0 7.0 0.00 0.00 0.00 30 1022.8
20260905231045 83 28 2.0 7.0 0.00 0.00 0.00 30 1022.8
20260905230545 84 124 1.0 6.0 0.00 0.00 0.00 29 1022.9
20260905230059 84 89 2.0 6.0 0.00 0.00 0.00 29 1022.9
20260905225544 84 24 2.0 9.0 0.00 0.00 0.00 29 1022.8
20260905225044 84 38 3.0 9.0 0.00 0.00 0.00 29 1022.9
20260905224611 84 134 2.0 8.0 0.00 0.00 0.00 29 1022.9
20260905224043 85 118 0.0 4.0 0.00 0.00 0.00 28 1022.9
20260905223545 85 0 1.0 4.0 0.00 0.00 0.00 28 1023.0
20260905223108 85 0 2.0 4.0 0.00 0.00 0.00 28 1023.0
20260905222546 85 134 1.0 4.0 0.00 0.00 0.00 27 1023.0
20260905222048 85 67 0.0 4.0 0.00 0.00 0.00 27 1023.0
20260905221601 85 66 1.0 4.0 0.00 0.00 0.00 27 1022.9
20260905221048 85 0 0.0 5.0 0.00 0.00 0.00 27 1023.0
20260905220542 85 0 1.0 6.0 0.00 0.00 0.00 27 1023.1
20260905220056 85 34 2.0 6.0 0.00 0.00 0.00 27 1023.0
20260905215543 85 7 2.0 6.0 0.00 0.00 0.00 27 1023.1
20260905215043 85 25 2.0 4.0 0.00 0.00 0.00 27 1023.1
20260905214602 85 22 2.0 4.0 0.00 0.00 0.00 27 1023.1
20260905214047 85 0 0.0 3.0 0.00 0.00 0.00 27 1023.0
20260905213545 85 359 0.0 3.0 0.00 0.00 0.00 27 1023.0
20260905213101 84 13 1.0 3.0 0.00 0.00 0.00 27 1022.9
20260905212544 84 351 0.0 3.0 0.00 0.00 0.00 28 1023.0
20260905212042 84 0 1.0 3.0 0.00 0.00 0.00 29 1023.1
20260905211603 84 0 0.0 2.0 0.00 0.00 0.00 29 1023.1
20260905211044 84 0 0.0 2.0 0.00 0.00 0.00 30 1023.1
20260905210543 84 351 0.0 2.0 0.00 0.00 0.00 30 1023.0
20260905205546 84 307 0.0 2.0 0.00 0.00 0.00 30 1023.0
20260905205048 84 0 0.0 2.0 0.00 0.00 0.00 30 1023.0
20260905204602 84 321 0.0 2.0 0.00 0.00 0.00 30 1023.0
20260905204046 84 299 0.0 2.0 0.00 0.00 0.00 30 1023.1
20260905203550 84 303 0.0 2.0 0.00 0.00 0.00 29 1023.1
20260905203059 84 0 0.0 2.0 0.00 0.00 0.00 29 1023.0
20260905202546 84 295 0.0 2.0 0.00 0.00 0.00 29 1023.0
20260905202043 85 0 0.0 4.0 0.00 0.00 0.00 29 1023.0
20260905201607 85 313 0.0 4.0 0.00 0.00 0.00 29 1022.9
20260905201048 85 0 0.0 3.0 0.00 0.00 0.00 28 1022.9
20260905200542 85 0 0.0 4.0 0.00 0.00 0.00 28 1023.0
20260905200107 85 0 0.0 8.0 0.00 0.00 0.00 28 1022.9
20260905195549 85 0 1.0 8.0 0.00 0.00 0.00 28 1022.8
20260905195046 85 292 1.0 5.0 0.00 0.00 0.00 28 1022.8
20260905194604 85 0 0.0 4.0 0.00 0.00 0.00 29 1022.9
20260905194048 85 311 0.0 4.0 0.00 0.00 0.00 29 1022.8
20260905193543 85 277 0.0 4.0 0.00 0.00 0.00 29 1022.7
20260905193100 86 0 0.0 4.0 0.00 0.00 0.00 29 1022.7
20260905192546 85 249 1.0 6.0 0.00 0.00 0.00 29 1022.7
20260905192044 85 0 0.0 6.0 0.00 0.00 0.00 29 1022.5
20260905191610 86 307 0.0 4.0 0.00 0.00 0.00 29 1022.4
20260905191042 86 0 0.0 6.0 0.00 0.00 0.00 29 1022.4
20260905190547 85 163 1.0 6.0 0.00 0.00 0.00 29 1022.4
20260905190134 86 328 1.0 9.0 0.00 0.00 0.00 29 1022.4
20260905185547 86 237 1.0 9.0 0.00 0.00 0.00 29 1022.4
20260905185044 86 254 2.0 8.0 0.00 0.00 0.00 28 1022.3
20260905184621 86 234 1.0 7.0 0.00 0.00 0.00 28 1022.3
20260905184046 87 225 1.0 7.0 0.00 0.00 0.00 28 1022.2
20260905183549 87 215 0.0 7.0 0.00 0.00 0.00 27 1022.1
20260905183109 86 291 1.0 4.0 0.00 0.00 0.00 27 1022.2
20260905182544 87 257 0.0 4.0 0.00 0.00 0.00 27 1022.1
20260905182046 87 0 0.0 4.0 0.00 0.00 0.00 27 1022.1
20260905181602 87 0 1.0 4.0 0.00 0.00 0.00 27 1022.2
20260905181047 87 149 0.0 4.0 0.00 0.00 0.00 27 1022.1
20260905180546 87 0 1.0 4.0 0.00 0.00 0.00 28 1022.1
20260905180059 87 231 1.0 6.0 0.00 0.00 0.00 27 1022.1
20260905175546 87 0 1.0 7.0 0.00 0.00 0.00 27 1022.1
20260905175044 87 241 2.0 7.0 0.00 0.00 0.00 27 1022.2
20260905174604 88 220 2.0 7.0 0.00 0.00 0.00 26 1022.2
20260905174043 88 226 1.0 5.0 0.00 0.00 0.00 26 1021.9
20260905173543 88 351 1.0 10.0 0.00 0.00 0.00 26 1021.9
20260905173118 88 288 1.0 10.0 0.00 0.00 0.00 26 1022.0
20260905172546 89 265 3.0 10.0 0.00 0.00 0.00 26 1022.1
20260905172049 89 0 1.0 7.0 0.00 0.00 0.00 26 1022.1
20260905171604 89 235 2.0 7.0 0.00 0.00 0.00 25 1022.0
20260905171049 89 0 2.0 7.0 0.00 0.00 0.00 25 1022.0
20260905170549 89 210 0.0 7.0 0.00 0.00 0.00 26 1021.9
20260905170123 90 3 0.0 7.0 0.00 0.00 0.00 25 1021.9
20260905165542 90 294 2.0 7.0 0.00 0.00 0.00 25 1021.9
20260905165046 90 187 1.0 5.0 0.00 0.00 0.00 25 1022.0
20260905164604 90 225 1.0 4.0 0.00 0.00 0.00 25 1021.9
20260905164057 90 221 0.0 6.0 0.00 0.00 0.00 24 1021.9
20260905163541 90 0 0.0 9.0 0.00 0.00 0.00 24 1021.9
20260905163100 90 228 2.0 9.0 0.00 0.00 0.00 24 1021.8
20260905162544 90 292 1.0 8.0 0.00 0.00 0.00 24 1021.7
20260905162043 90 9 1.0 8.0 0.00 0.00 0.00 24 1021.8
20260905161558 90 270 3.0 7.0 0.00 0.00 0.00 24 1021.9
20260905161044 91 199 2.0 7.0 0.00 0.00 0.00 24 1021.9
20260905160544 91 208 1.0 9.0 0.00 0.00 0.00 23 1021.9
20260905160058 91 7 0.0 9.0 0.00 0.00 0.00 24 1022.1
20260905155547 91 270 1.0 9.0 0.00 0.00 0.00 23 1022.1
20260905155043 91 298 1.0 8.0 0.00 0.00 0.00 23 1022.1
20260905154606 91 336 1.0 8.0 0.00 0.00 0.00 23 1022.0
20260905154042 91 6 2.0 7.0 0.00 0.00 0.00 23 1022.0
20260905153542 91 300 2.0 6.0 0.00 0.00 0.00 23 1021.9
20260905153102 91 269 1.0 8.0 0.00 0.00 0.00 22 1022.0
20260905152543 91 293 2.0 8.0 0.00 0.00 0.00 22 1022.1
20260905152043 92 235 2.0 8.0 0.00 0.00 0.00 22 1022.2
20260905151601 92 264 2.0 6.0 0.00 0.00 0.00 22 1022.0
20260905151042 92 222 1.0 6.0 0.00 0.00 0.00 22 1021.9
20260905150543 92 355 1.0 6.0 0.00 0.00 0.00 22 1021.8
20260905150055 92 203 1.0 8.0 0.00 0.00 0.00 22 1021.7
20260905145544 92 320 2.0 8.0 0.00 0.00 0.00 22 1021.8